Location: Observatoire
(46.1952°N, 5.3391°E)
Time: 08:03:02
(UTC+01:00)

Altair - Pass Details

Date: 26 February 2026
Orbit: 1502 x 1682 km, 47.2° (Epoch: 9 March)

Event Time Altitude Azimuth Distance (km) Brightness Sun altitude
Rises 04:42:39 0° 255° (WSW) 4,630 - -28.3°
Reaches altitude 10° 04:45:39 10° 256° (WSW) 3,651 - -27.8°
Exits shadow 04:51:46 48° 257° (WSW) 1,888 7.5 -26.8°
Maximum altitude 04:54:52 90° 18° (NNE) 1,521 7.3 -26.3°
Drops below altitude 10° 05:04:18 10° 79° (E) 3,736 10.6 -24.7°
Sets 05:07:24 0° 80° (E) 4,743 11.5 -24.2°
